When you browse on this site, cookies collect data to enhance your experience and personalize the content and advertising you see.
Visit our Privacy Policy to learn more. By continuing to use the site, you agree to this use of cookies and data.
  • In Hungary
  • List of Countries
  • For 7 days
  • Water Temperature
  • Satellite Maps
  • Weather Map
  • News
  • Weather Widgets
  • user-avatar
    Login

    Hourly Weather Annaberg-Buchholz

    Today, 20 February, Wednesday

    Time Temperature Precipitation Wind Pressure Humidity
    00:00 -1°C° 0 mm 4 mps 712 mmHg 90%
    01:00 0°C° 0 mm 3 mps 712 mmHg 91%
    02:00 0°C° 0 mm 3 mps 712 mmHg 91%
    03:00 -1°C° 0 mm 3 mps 712 mmHg 92%
    04:00 -1°C° 0 mm 3 mps 712 mmHg 92%
    05:00 -1°C° 0 mm 3 mps 712 mmHg 92%
    06:00 -1°C° 0 mm 3 mps 712 mmHg 93%
    07:00 -2°C° 0 mm 2 mps 712 mmHg 95%
    08:00 +1°C° 0 mm 2 mps 713 mmHg 91%
    09:00 +1°C° 0 mm 3 mps 713 mmHg 88%
    10:00 +2°C° 0 mm 3 mps 714 mmHg 85%
    11:00 +3°C° 0 mm 3 mps 714 mmHg 81%
    12:00 +4°C° 0 mm 3 mps 714 mmHg 78%
    13:00 +4°C° 0 mm 4 mps 714 mmHg 75%
    14:00 +4°C° 0 mm 3 mps 714 mmHg 75%
    15:00 +4°C° 0 mm 3 mps 714 mmHg 76%
    16:00 +4°C° 0 mm 3 mps 714 mmHg 76%
    17:00 +4°C° 0 mm 2 mps 714 mmHg 80%
    18:00 +3°C° 0 mm 2 mps 714 mmHg 84%
    19:00 +2°C° 0 mm 2 mps 714 mmHg 89%
    20:00 +2°C° 0 mm 2 mps 715 mmHg 89%
    21:00 +2°C° 0 mm 2 mps 715 mmHg 90%
    22:00 +2°C° 0 mm 2 mps 715 mmHg 91%
    23:00 +2°C° 0 mm 2 mps 715 mmHg 91%

    Tomorrow, 21 February, Thursday

    Time Temperature Precipitation Wind Pressure Humidity
    00:00 +2°C° 0 mm 2 mps 716 mmHg 91%
    01:00 +1°C° 0 mm 2 mps 716 mmHg 91%
    02:00 +1°C° 0 mm 2 mps 716 mmHg 91%
    03:00 +1°C° 0 mm 2 mps 716 mmHg 91%
    04:00 +1°C° 0 mm 2 mps 716 mmHg 91%
    05:00 +1°C° 0 mm 2 mps 716 mmHg 91%
    06:00 -1°C° 0 mm 2 mps 716 mmHg 90%
    07:00 -1°C° 0 mm 2 mps 716 mmHg 90%
    08:00 +1°C° 0 mm 3 mps 716 mmHg 87%
    09:00 +2°C° 0 mm 3 mps 716 mmHg 83%
    10:00 +4°C° 0 mm 3 mps 717 mmHg 79%
    11:00 +5°C° 0 mm 4 mps 716 mmHg 77%
    12:00 +5°C° 0 mm 4 mps 716 mmHg 74%
    13:00 +6°C° 0 mm 4 mps 716 mmHg 72%
    14:00 +6°C° 0 mm 4 mps 716 mmHg 76%
    15:00 +6°C° 0 mm 4 mps 716 mmHg 79%
    16:00 +5°C° 0 mm 4 mps 715 mmHg 82%
    17:00 +5°C° 0.1 mm 4 mps 716 mmHg 85%
    18:00 +4°C° 0.1 mm 4 mps 716 mmHg 87%
    19:00 +4°C° 0.1 mm 4 mps 716 mmHg 89%
    20:00 +3°C° 0.3 mm 5 mps 716 mmHg 90%
    21:00 +3°C° 0.3 mm 5 mps 716 mmHg 91%
    22:00 +3°C° 0.3 mm 5 mps 716 mmHg 92%
    23:00 +3°C° 0.4 mm 5 mps 716 mmHg 92%

    Day after tomorrow, 22 February, Friday

    Time Temperature Precipitation Wind Pressure Humidity
    00:00 +3°C° 0.4 mm 5 mps 716 mmHg 93%
    01:00 +3°C° 0.4 mm 6 mps 716 mmHg 94%
    02:00 +3°C° 0.3 mm 5 mps 716 mmHg 94%
    03:00 +5°C° 0.3 mm 5 mps 716 mmHg 94%
    04:00 +5°C° 0.3 mm 5 mps 716 mmHg 95%
    05:00 +3°C° 0.3 mm 5 mps 717 mmHg 95%
    06:00 +3°C° 0.3 mm 5 mps 717 mmHg 94%
    07:00 +3°C° 0.3 mm 5 mps 717 mmHg 94%
    08:00 +4°C° 0.1 mm 4 mps 718 mmHg 93%
    09:00 +4°C° 0.1 mm 4 mps 719 mmHg 92%
    10:00 +4°C° 0.1 mm 4 mps 719 mmHg 91%
    11:00 +4°C° 0.1 mm 3 mps 720 mmHg 91%
    12:00 +4°C° 0.1 mm 3 mps 720 mmHg 90%
    13:00 +4°C° 0.1 mm 3 mps 721 mmHg 90%
    14:00 +3°C° 0 mm 3 mps 721 mmHg 88%
    15:00 +3°C° 0 mm 3 mps 722 mmHg 86%
    16:00 +3°C° 0 mm 3 mps 722 mmHg 84%
    17:00 +2°C° 0 mm 3 mps 722 mmHg 87%
    18:00 +1°C° 0 mm 2 mps 723 mmHg 90%
    19:00 -1°C° 0 mm 2 mps 723 mmHg 93%
    20:00 -2°C° 0 mm 2 mps 724 mmHg 93%
    21:00 0°C° 0 mm 1 mps 724 mmHg 92%
    22:00 -1°C° 0 mm 1 mps 724 mmHg 92%
    23:00 -1°C° 0 mm 1 mps 724 mmHg 89%

    23 February, Saturday

    Time Temperature Precipitation Wind Pressure Humidity
    00:00 -1°C° 0 mm 1 mps 725 mmHg 85%
    01:00 -2°C° 0 mm 1 mps 725 mmHg 82%
    02:00 -2°C° 0 mm 1 mps 725 mmHg 76%
    03:00 -2°C° 0 mm 1 mps 725 mmHg 70%
    04:00 -2°C° 0 mm 1 mps 724 mmHg 65%
    05:00 -2°C° 0 mm 1 mps 725 mmHg 61%
    06:00 -2°C° 0 mm 1 mps 725 mmHg 58%
    07:00 -2°C° 0 mm 1 mps 725 mmHg 55%
    08:00 -1°C° 0 mm 1 mps 725 mmHg 50%
    09:00 0°C° 0 mm 1 mps 726 mmHg 44%
    10:00 +1°C° 0 mm 1 mps 726 mmHg 39%
    11:00 +3°C° 0 mm 1 mps 726 mmHg 37%
    12:00 +4°C° 0 mm 1 mps 726 mmHg 35%
    13:00 +5°C° 0 mm 1 mps 726 mmHg 33%
    14:00 +5°C° 0 mm 1 mps 726 mmHg 37%
    15:00 +5°C° 0 mm 1 mps 726 mmHg 40%
    16:00 +4°C° 0 mm 1 mps 725 mmHg 43%
    17:00 +3°C° 0 mm 1 mps 725 mmHg 49%
    18:00 +1°C° 0 mm 1 mps 725 mmHg 54%
    19:00 0°C° 0 mm 1 mps 725 mmHg 60%
    20:00 0°C° 0 mm 1 mps 725 mmHg 60%
    21:00 0°C° 0 mm 1 mps 725 mmHg 61%
    22:00 0°C° 0 mm 1 mps 725 mmHg 61%
    23:00 0°C° 0 mm 1 mps 725 mmHg 60%

    24 February, Sunday

    Time Temperature Precipitation Wind Pressure Humidity
    00:00 0°C° 0 mm 1 mps 725 mmHg 58%
    01:00 0°C° 0 mm 1 mps 725 mmHg 57%
    02:00 0°C° 0 mm 1 mps 724 mmHg 55%
    03:00 0°C° 0 mm 1 mps 724 mmHg 54%
    04:00 0°C° 0 mm 1 mps 724 mmHg 52%
    05:00 -1°C° 0 mm 0 mps 724 mmHg 50%
    06:00 -1°C° 0 mm 0 mps 724 mmHg 49%
    07:00 -1°C° 0 mm 0 mps 724 mmHg 48%
    08:00 +1°C° 0 mm 0 mps 724 mmHg 44%
    09:00 +2°C° 0 mm 0 mps 725 mmHg 41%
    10:00 +4°C° 0 mm 0 mps 725 mmHg 37%
    11:00 +5°C° 0 mm 0 mps 725 mmHg 39%
    12:00 +6°C° 0 mm 0 mps 725 mmHg 41%
    13:00 +8°C° 0 mm 0 mps 725 mmHg 42%
    14:00 +8°C° 0 mm 1 mps 725 mmHg 48%
    15:00 +8°C° 0 mm 1 mps 724 mmHg 54%
    16:00 +7°C° 0 mm 1 mps 724 mmHg 59%
    17:00 +6°C° 0 mm 1 mps 724 mmHg 64%
    18:00 +4°C° 0 mm 1 mps 724 mmHg 69%
    19:00 +1°C° 0 mm 0 mps 723 mmHg 74%
    20:00 +1°C° 0 mm 0 mps 723 mmHg 74%
    21:00 +1°C° 0 mm 0 mps 724 mmHg 74%
    22:00 +1°C° 0 mm 0 mps 724 mmHg 75%
    23:00 +1°C° 0 mm 0 mps 724 mmHg 75%

    25 February, Monday

    Time Temperature Precipitation Wind Pressure Humidity
    00:00 +1°C° 0 mm 0 mps 724 mmHg 75%
    01:00 +1°C° 0 mm 0 mps 724 mmHg 75%
    02:00 +1°C° 0 mm 0 mps 724 mmHg 76%
    03:00 +2°C° 0 mm 1 mps 724 mmHg 76%
    04:00 +2°C° 0 mm 1 mps 724 mmHg 77%
    05:00 +2°C° 0 mm 1 mps 724 mmHg 77%
    06:00 +2°C° 0 mm 1 mps 724 mmHg 77%
    07:00 +2°C° 0 mm 1 mps 724 mmHg 77%
    08:00 +4°C° 0 mm 1 mps 724 mmHg 73%
    09:00 +5°C° 0 mm 1 mps 725 mmHg 69%
    10:00 +6°C° 0 mm 1 mps 725 mmHg 65%
    11:00 +7°C° 0 mm 1 mps 725 mmHg 64%
    12:00 +7°C° 0 mm 2 mps 725 mmHg 62%
    13:00 +8°C° 0 mm 2 mps 725 mmHg 61%
    14:00 +8°C° 0 mm 2 mps 724 mmHg 64%
    15:00 +8°C° 0 mm 2 mps 724 mmHg 66%
    16:00 +7°C° 0 mm 2 mps 724 mmHg 69%
    17:00 +6°C° 0 mm 2 mps 724 mmHg 75%
    18:00 +4°C° 0 mm 2 mps 724 mmHg 82%
    19:00 +3°C° 0 mm 1 mps 724 mmHg 88%
    20:00 +3°C° 0 mm 1 mps 724 mmHg 88%
    21:00 +3°C° 0 mm 1 mps 724 mmHg 89%
    22:00 +2°C° 0 mm 1 mps 724 mmHg 89%
    23:00 +2°C° 0 mm 1 mps 724 mmHg 89%
    Show more